Location: Andiroba
(19.8650°S, 43.9258°W)
Time: 00:19:00
(UTC+00:00)

SMAP - Pass Details

Date: 15 June 2024
Orbit: 681 x 683 km, 98.1° (Epoch: 24 July)

Event Time Altitude Azimuth Distance (km) Brightness Sun altitude
Rises 08:26:28 0° 18° (NNE) 3,024 7.0 -14.3°
Reaches altitude 10° 08:28:42 10° 20° (NNE) 2,116 6.2 -13.8°
Maximum altitude 08:33:18 69° 103° (ESE) 734 3.4 -12.8°
Drops below altitude 10° 08:37:56 10° 186° (S) 2,139 5.4 -11.8°
Sets 08:40:12 0° 188° (S) 3,060 6.1 -11.3°
